This demonstration page uses our WeatherBlox Daily Observations layout. Learn more.

Left ArrowRight Arrow

39.12711, -84.51439

Hourly Observations for August 9, 2018

Temp ( °F °C ) Dew Point ( °F °C ) Humidity (%) Winds ( mph kmh ) Pressure ( in mb ) Visibility ( mi km ) Precip ( " mm )
12:53 am 00:53 Mostly Cloudy 70 21.1 69 20.6 97 97 NNE 5 7 29.96 1015 7 11 N/A
1:53 am 01:53 Mostly Cloudy 70 21.1 70 21.1 100 100 NE 3 6 29.96 1015 7 11 N/A
2:53 am 02:53 Mostly Cloudy with Mist and Fog 68 20 68 20 100 100 N N/A 29.96 1015 2 3 N/A
3:06 am 03:06 Cloudy with Mist and Fog 69 20.6 69 20.6 100 100 N N/A 29.94 1014 3 5 N/A
3:28 am 03:28 Partly Cloudy with Mist and Fog 69 20.6 69 20.6 100 100 N N/A 29.94 1014 2 3 N/A
3:53 am 03:53 Clear with Fog 69 20.6 69 20.6 100 100 N N/A 29.96 1015 1 1 N/A
4:06 am 04:06 Partly Cloudy with Fog 68 20 68 20 100 100 N N/A 29.94 1014 1 1 N/A
4:53 am 04:53 Clear with Mist and Fog 68 20 68 20 100 100 N N/A 29.96 1014 2 2 N/A
4:58 am 04:58 Mostly Clear with Mist and Fog 68 20 68 20 100 100 N N/A 29.94 1014 3 4 N/A
5:04 am 05:04 Mostly Cloudy with Mist and Fog 67 19.4 67 19.4 100 100 N N/A 29.94 1014 1 2 N/A
5:09 am 05:09 Mostly Cloudy with Fog 67 19.4 67 19.4 100 100 N N/A 29.94 1014 0 0 N/A
5:20 am 05:20 Mostly Cloudy with Mist and Fog 67 19.4 67 19.4 100 100 N N/A 29.94 1014 1 2 N/A
5:29 am 05:29 Mostly Cloudy with Fog 66 18.9 66 18.9 100 100 N N/A 29.94 1014 0 0 N/A
5:53 am 05:53 Mostly Cloudy with Fog 67 19.4 67 19.4 100 100 N N/A 29.96 1015 0 0 N/A
6:53 am 06:53 Mostly Cloudy with Fog 67 19.4 67 19.4 100 100 N N/A 29.98 1015 5 8 N/A
7:53 am 07:53 Mostly Cloudy with Fog 68 20 68 20 100 100 N N/A 30.00 1016 0 0 N/A
8:53 am 08:53 Mostly Cloudy with Fog 70 21.1 70 21.1 100 100 N N/A 30.00 1016 1 1 N/A
9:00 am 09:00 Mostly Cloudy with Fog 71 21.7 71 21.7 100 100 SSW 3 6 29.97 1015 5 8 N/A
9:07 am 09:07 Mostly Cloudy with Fog 71 21.7 71 21.7 100 100 SSW 3 6 29.97 1015 1 1 N/A
9:15 am 09:15 Cloudy with Mist and Fog 71 21.7 71 21.7 100 100 S 6 9 29.97 1015 1 2 N/A
9:29 am 09:29 Mostly Cloudy with Mist and Fog 72 22.2 72 22.2 100 100 S 3 6 29.97 1015 2 3 N/A
9:44 am 09:44 Partly Cloudy with Mist and Fog 73 22.8 73 22.8 100 100 VRB 3 6 29.97 1015 3 5 N/A
9:53 am 09:53 Partly Cloudy with Mist and Fog 74 23.3 73 22.8 97 97 S 5 7 30.00 1016 4 6 N/A
10:53 am 10:53 Mostly Sunny 77 25 73 22.8 88 88 SSW 3 6 30.01 1016 9 14 N/A
11:35 am 11:35 Mostly Cloudy 80 26.7 73 22.8 79 79 N N/A 30.00 1016 10 16 N/A
11:53 am 11:53 Mostly Cloudy 81 27.2 73 22.8 77 77 S 7 11 30.00 1016 10 16 N/A
12:00 pm 12:00 Mostly Cloudy 81 27.2 73 22.8 77 77 SSW 7 11 30.00 1016 10 16 N/A
12:53 pm 12:53 Partly Cloudy 82 27.8 73 22.8 74 74 SSW 8 13 29.99 1016 10 16 N/A
1:53 pm 13:53 Mostly Cloudy 84 28.9 72 22.2 67 67 WSW 7 11 29.98 1015 10 16 N/A
2:53 pm 14:53 Partly Cloudy 86 30 70 21.1 59 59 WSW 7 11 29.97 1015 10 16 N/A
3:53 pm 15:53 Partly Cloudy 85 29.4 66 18.9 53 53 WNW 7 11 29.96 1015 10 16 N/A
4:53 pm 16:53 Sunny 85 29.4 67 19.4 55 55 W 6 9 29.94 1014 10 16 N/A
5:53 pm 17:53 Sunny 82 27.8 70 21.1 67 67 WSW 8 13 29.93 1014 10 16 N/A
6:53 pm 18:53 Mostly Sunny 82 27.8 67 19.4 60 60 WNW 7 11 29.93 1014 10 16 N/A
7:53 pm 19:53 Sunny 79 26.1 69 20.6 72 72 N N/A 29.94 1014 10 16 N/A
8:53 pm 20:53 Clear 75 23.9 71 21.7 88 88 S 3 6 29.95 1014 10 16 N/A
9:53 pm 21:53 Clear 72 22.2 71 21.7 97 97 N N/A 29.98 1015 10 16 N/A
10:53 pm 22:53 Clear 70 21.1 70 21.1 100 100 N N/A 29.98 1015 8 13 N/A
11:53 pm 23:53 Clear 69 20.6 69 20.6 100 100 N N/A 29.98 1015 7 11 N/A

Powered by AerisWeather